Regional Weather Roundup
Issued by NWS State College, PA

Home | Current Version | Previous Version | Text Only | Print | Product List | Glossary Off
Versions: 1 2 3 4 5 6 7 8 9 10 11 12 13 14 15 16 17 18 19 20 21 22 23 24 25 26 27 28 29 30 31 32 33 34 35 36 37 38 39 40 41 42 43 44 45 46 47 48 49 50

000
ASUS41 KCTP 231110
RWRCTP

REGIONAL WEATHER ROUNDUP
NATIONAL WEATHER SERVICE STATE COLLEGE PA
600 AM EST MON JAN 23 2017

Note: "fair" indicates few or no clouds below 12,000 feet with no
significant weather and/or obstructions to visibility.

* = STATION THAT DOES NOT REPORT PRECIPITATION /E.G. RAIN...SNOW...ETC/
    THUNDER OR FOG.

PAZ002>004-007>009-013>016-020>023-029>032-231200-
WESTERN PENNSYLVANIA

CITY           SKY/WX    TMP DP  RH WIND       PRES   REMARKS
ERIE           CLOUDY    38  36  92 NE16      29.62F FOG
MEADVILLE      CLOUDY    50  42  74 E14G25    29.57S
FRANKLIN*        N/A     46  41  81 E15       29.58F
NEW CASTLE     LGT RAIN  49  45  86 E12G17    29.54F
BEAVER COUNTY  NOT AVBL
BUTLER*        CLOUDY    46  41  81 E16       29.55S
PITTSBURGH INT DRIZZLE   50  45  83 E16G28    29.49S
PITTSBURGH     CLOUDY    50  40  68 E20G29    29.49S
INDIANA*       CLOUDY    46  43  87 E12G22    29.57F
LATROBE        CLOUDY    48  41  76 NE10G25   29.53S
WASHINGTON CO* CLOUDY    50  43  76 NE12G21   29.47S
$$

PAZ004>006-010>012-017>019-024>028-033>037-041-042-045-046-049>053-231200-
CENTRAL PENNSYLVANIA

CITY           SKY/WX    TMP DP  RH WIND       PRES   REMARKS
BRADFORD       CLOUDY    45  42  89 SE17      29.63R
DUBOIS         LGT RAIN  44  40  85 E14G23    29.58F
CLEARFIELD     CLOUDY    45  42  89 E15G25    29.61F
JOHNSTOWN      LGT RAIN  42  41  96 E18G28    29.50F FOG
ALTOONA        LGT RAIN  44  42  93 E21G32    29.57F FOG
STATE COLLEGE  CLOUDY    43  41  93 E10G22    29.64S
WILLIAMSPORT   CLOUDY    45  37  73 E18G26    29.71S
SELINSGROVE    LGT RAIN  44  40  85 NE12G18   29.71S
FT INDIANTOWN  CLOUDY    43  43 100 E16G26    29.68S
CAPITAL CITY   LGT RAIN  44  40  85 E20G28    29.65F FOG
HARRISBURG     LGT RAIN  44  42  93 E9        29.65F FOG
YORK           LGT RAIN  43  42  97 E17G23    29.62F FOG
$$

PAZ038>040-043-044-047-048-054-055-060>062-067>071-231200-
EASTERN PENNSYLVANIA

CITY           SKY/WX    TMP DP  RH WIND       PRES   REMARKS
SCRANTON       CLOUDY    40  36  86 NE7       29.76S
MOUNT POCONO   CLOUDY    34  33  96 E17G29    29.73R FOG
ALLENTOWN      CLOUDY    44  36  73 E16G32    29.75R
QUAKERTOWN*    CLOUDY    39  39 100 E14G28    29.74S
READING        LGT RAIN  42  41  96 E16G25    29.70S FOG
LANCASTER      CLOUDY    43  42  97 E20       29.65F
COATESVILLE    MIX PCPN  41  41 100 E18G44    29.66F
POTTSTOWN      CLOUDY    42  39  89 E9G24     29.72S
BLUE BELL      CLOUDY    39  37  93 E23       29.71S
DOYLESTOWN     CLOUDY    43  39  86 MISG      29.73S
WILLOW GROVE   NOT AVBL
NORTH PHILA    CLOUDY    44  40  85 E22G37    29.74F
PHILADELPHIA   CLOUDY    44  40  85 NE21G32   29.69F
$$



USA.gov is the U.S. government's official web portal to all federal, state and local government web resources and services.